Location: Eckley
(40.9930°N, 75.8630°W)
Time: 14:07:18
(UTC-04:00)

Daily predictions for brighter satellites

Satellite Brightness Start Highest point End
(mag) Time Altitude Azimuth Time Altitude Azimuth Time Altitude Azimuth
Meteor 2-9 Rocket 4.5 20:49:52 10° N 20:55:29 57° ENE 21:01:11 10° SSE
CZ-4 DEB 3.3 20:53:38 10° S 20:56:49 61° WSW 21:00:02 10° NNW
Cosmos 1626 Rocket 4.4 20:55:02 10° SSE 20:58:59 32° E 21:02:57 10° NNE
Cosmos 494 Rocket 4.0 20:54:34 10° SSW 20:59:41 85° ESE 21:04:50 10° NNE
Meteor 2-4 Rocket 3.9 20:58:53 10° S 21:04:45 83° E 21:10:43 10° N
Cosmos 2333 Rocket 4.4 21:00:58 10° WSW 21:05:55 31° NW 21:10:56 10° N
Cosmos 2228 3.2 21:02:00 10° N 21:06:23 60° E 21:10:44 10° SSE
Cosmos 2297 4.2 21:00:47 10° NNW 21:06:26 63° WSW 21:12:05 10° S
FENGYUN 3A 4.2 21:02:44 10° S 21:08:02 62° WSW 21:13:24 10° NNW
Cosmos 1025 Rocket 4.4 21:04:44 10° SSW 21:08:55 44° WNW 21:13:07 10° N
Cosmos 1943 4.4 21:10:22 10° SSE 21:14:29 21° E 21:18:35 10° NE
Cosmos 1943 Rocket 4.4 21:17:15 10° NNE 21:18:20 10° NE 21:19:24 10° NE
H-2A R/B 4.2 21:15:01 10° SSW 21:18:41 38° W 21:22:26 10° NNW
Nimbus 7 Rocket 4.5 21:13:24 10° NNE 21:19:18 60° ESE 21:25:05 10° S
Okean 2 3.8 21:16:14 10° SSW 21:20:23 68° W 21:24:35 10° N
H-2A R/B 4.2 21:19:37 10° ENE 21:20:30 10° ENE 21:21:22 10° NE
GEOS 3 Rocket 4.3 21:15:24 10° SSE 21:20:31 52° WSW 21:25:38 10° NW
Cosmos 1891 Rocket 4.4 21:18:45 10° N 21:24:56 79° E 21:30:57 10° S
PSLV R/B 3.7 21:22:51 14° SE 21:25:15 41° ENE 21:28:13 10° N
Aureole 2 Rocket 3.1 21:22:13 10° SSW 21:26:07 63° WNW 21:29:40 10° NNE
Lacrosse 4 Rocket 3.2 21:26:48 12° ESE 21:26:56 12° ESE 21:28:30 10° E
Timation 1 Rocket 4.4 21:22:32 10° NNW 21:28:36 88° ENE 21:34:16 12° SSE
SeaSat 1 2.8 21:24:32 13° SE 21:28:51 55° ENE 21:33:41 10° NNW
CZ-4B R/B 4.0 21:32:34 10° NNE 21:37:24 41° E 21:42:11 11° S
USA 186 4.5 21:36:08 10° WSW 21:37:27 12° W 21:38:44 10° WNW
Cosmos 1302 Rocket 4.4 21:32:21 10° NNW 21:37:32 62° WSW 21:42:42 10° S
CZ-2C R/B 3.2 21:37:38 10° SW 21:39:18 17° W 21:40:59 10° NW
DEBRIS 2.8 21:39:36 10° WNW 21:44:32 54° SW 21:45:47 24° SSE
Cosmos 1461 3.3 21:42:33 10° NW 21:46:45 56° WSW 21:49:44 17° SSE
ATLAS 3B R/B 3.3 21:43:36 10° S 21:50:41 41° ESE 21:57:40 10° NE
Tsikada Rocket 4.1 21:45:49 10° S 21:52:14 86° W 21:58:39 10° N
ARGOS 3.7 21:51:45 20° SE 21:55:15 45° ENE 22:00:24 10° N
Cosmos 2369 Rocket 2.7 21:52:47 10° NNW 21:58:16 47° ENE 22:01:40 22° SE
Abrixas rocket 4.2 22:02:37 10° W 22:05:09 20° SW 22:06:15 17° SSW
USA 234 3.4 22:01:10 19° ESE 22:06:04 75° NE 22:12:38 10° NW
Atlas Centaur 2 3.5 22:00:44 10° WSW 22:07:42 38° S 22:12:43 20° ESE
Cosmos 1825 Rocket 3.6 22:05:59 22° S 22:08:43 62° E 22:13:07 10° NNE
Envisat 3.7 22:05:31 11° S 22:10:09 50° W 22:15:06 10° NNW
MetOp-B 4.2 22:06:59 18° S 22:11:00 77° WSW 22:16:24 10° NNW
NOAA 11 4.4 22:08:02 25° SE 22:11:09 57° ENE 22:16:28 10° N
CZ-4C R/B 4.1 22:10:25 29° ESE 22:12:02 42° ENE 22:15:54 10° N
Cosmos 407 Rocket 3.8 22:11:19 24° SSE 22:14:07 45° ESE 22:19:04 10° NNE
Cosmos 1812 Rocket 4.3 22:10:36 10° NNW 22:14:52 51° W 22:18:12 16° SSW
ISS -3.1 22:13:30 10° WSW 22:16:45 70° NW 22:20:01 10° NE
Cosmos 2142 Rocket 4.5 22:13:57 10° N 22:20:17 76° E 22:24:04 25° SSE
CZ-4 R/B 3.9 22:15:57 10° NNE 22:20:57 75° ESE 22:24:19 21° S
PSLV R/B 3.2 22:17:58 10° W 22:21:32 84° S 22:22:59 33° E
SL-08 RB Rocket 3.7 22:21:16 33° SSE 22:23:13 67° ENE 22:27:43 10° N
Cosmos 2263 4.5 22:18:50 10° NNW 22:24:21 55° ENE 22:26:58 30° SE
COSMOS 2406 4.5 22:27:26 21° ESE 22:27:31 21° E 22:31:43 10° NE
SPOT 5 4.0 22:24:58 13° SSW 22:28:19 33° W 22:32:15 10° NNW
Landsat 7 4.0 22:27:37 35° SE 22:29:24 56° ENE 22:34:04 10° N
Meteor 1-22 Rocket 4.2 22:24:00 10° N 22:29:35 75° E 22:32:26 31° SSE
Cosmos 1953 3.7 22:27:17 10° NNE 22:30:31 23° ENE 22:30:51 23° E
Cosmos 1634 Rocket 4.0 22:24:41 10° N 22:30:53 86° W 22:34:40 25° S
COSMOS 2455 3.4 22:25:39 10° SW 22:31:33 58° WNW 22:37:30 10° NNE
USA 245 4.4 22:28:23 22° S 22:32:18 68° WSW 22:37:31 10° NNW
Cosmos 1066 Rocket 4.3 22:30:02 17° SSW 22:34:33 81° W 22:40:23 10° N
USA 81 4.2 22:29:20 10° N 22:34:36 71° W 22:37:42 25° S
YAOGAN 6 3.8 22:39:45 25° SW 22:41:15 37° W 22:44:45 10° NNW
Terra 2.0 22:43:54 42° SE 22:45:12 57° ENE 22:49:53 10° N
Cosmos 489 Rocket 4.4 22:42:05 18° SSW 22:46:56 86° ESE 22:53:21 10° NNE
Cosmos 1346 Rocket 3.2 22:48:52 34° SW 22:50:19 58° W 22:54:13 10° N
IGS 5A 3.6 22:51:07 52° ESE 22:51:40 57° ENE 22:55:46 10° N
Cosmos 2279 Rocket 3.9 22:48:00 10° N 22:54:18 85° E 22:56:57 37° S
Cosmos 1953 Rocket 4.1 22:52:36 27° SW 22:54:47 54° W 22:59:09 10° N
Cosmos 1943 3.9 22:52:30 10° SW 22:58:03 54° WNW 23:03:39 10° NNE
H-2A R/B 1.9 22:57:40 49° SSE 22:59:02 84° ENE 23:04:06 10° NNW
Geosat 4.1 22:58:12 10° NNE 23:03:14 73° WNW 23:06:36 21° SW
Cosmos 1943 Rocket 2.3 22:57:44 10° NNW 23:03:15 62° ENE 23:04:49 44° ESE
Cosmos 1842 3.1 23:04:02 82° S 23:04:12 88° E 23:08:08 10° N
Lacrosse 4 Rocket 1.9 23:03:03 26° SW 23:05:07 55° WNW 23:09:10 10° NNE
SAR-Lupe-2 3.6 23:05:25 70° W 23:05:25 70° W 23:08:57 10° NNW
Cosmos 1932 4.4 23:03:15 37° S 23:05:39 64° ESE 23:11:48 10° NE
Meteor 1-21 4.4 23:03:33 30° SSW 23:06:31 75° W 23:12:22 10° N
SeaSat 1 4.4 23:04:20 14° SW 23:06:39 19° WSW 23:10:10 10° WNW
SL-24 R/B 4.5 23:02:01 10° N 23:06:58 80° W 23:08:44 42° SSW
Cosmos 1850 Rocket 4.5 23:09:59 41° ESE 23:09:59 41° ESE 23:14:51 10° NE
Cosmos-2242 2.9 23:06:47 10° N 23:11:13 88° ENE 23:11:38 73° SSE
Cosmos 1607 4.3 23:12:49 41° ESE 23:13:09 42° ESE 23:18:58 10° NE
Cosmos 2180 Rocket 4.5 23:08:04 10° N 23:14:21 81° W 23:16:42 42° S
Cosmos 1758 3.3 23:12:13 10° N 23:16:19 79° ENE 23:16:19 79° ENE
Cosmos 1656 Rocket 4.5 23:12:57 10° N 23:18:19 41° ENE 23:19:52 34° E
Meteor 2-5 Rocket 4.4 23:23:06 37° ESE 23:23:35 38° E 23:28:53 10° NNE
Cosmos 1023 Rocket 4.4 23:22:55 62° SSE 23:23:38 72° ESE 23:28:54 10° NNE
DMSP B5D2-2 4.2 23:19:12 10° N 23:24:28 73° WNW 23:26:13 42° SSW
Cosmos 1766 4.4 23:22:25 10° NNW 23:26:05 35° W 23:26:30 34° WSW
Cosmos 1140 Rocket 3.4 23:28:55 65° S 23:29:41 81° ESE 23:34:57 10° NNE
CARTOSAT-1 4.3 23:31:25 40° WSW 23:31:49 41° W 23:35:56 10° NNW
ATLAS 3B R/B 3.8 23:33:58 10° WSW 23:41:23 49° NW 23:48:38 10° NNE
Cosmos 2369 Rocket 3.7 23:37:30 10° NW 23:41:56 24° WSW 23:43:27 22° SW
COSMOS 2487 4.4 23:47:19 25° NE 23:47:19 25° NE 23:49:01 10° NNE
ALOS 2 4.1 23:46:16 27° ENE 23:46:16 27° ENE 23:49:54 10° NNE
NOSS 3-2 (A) 4.1 23:47:21 37° ESE 23:47:21 37° ESE 23:52:43 10° NE
USA 234 4.2 23:48:30 29° SW 23:49:24 30° SW 23:55:04 10° WNW
ISS -0.3 23:51:23 10° WNW 23:53:40 17° NNW 23:55:57 10° NNE
SL-27 R/B 4.3 23:54:51 27° NW 23:54:51 27° NW 23:57:22 10° N
Cosmos 1470 3.5 23:50:52 10° N 23:53:49 49° N 23:53:49 49° N
